EW3309 Weather Reports


Display with metric or nautical units.
time (UTC)temp
F
wind
direction
speed
MPH
gust
MPH
rain 1hr
in
rain 24hr
in
rain mn
in
humidity
%
barometer
mb
20260906051529 78 338 0.0 0.0 0.00 0.00 0.00 40 1010.9
20260906050016 78 338 0.0 0.0 0.00 0.00 0.00 39 1011.0
20260906044516 78 336 0.0 0.0 0.00 0.00 0.00 38 1010.9
20260906043017 79 324 0.0 0.0 0.00 0.00 0.00 38 1011.0
20260906041515 79 324 0.0 0.0 0.00 0.00 0.00 38 1010.9
20260906040028 79 324 0.0 0.0 0.00 0.00 0.00 38 1010.8
20260906034513 79 330 0.0 0.0 0.00 0.00 0.00 40 1010.7
20260906033013 80 348 0.0 0.0 0.00 0.00 0.00 39 1010.5
20260906031514 81 308 0.0 0.0 0.00 0.00 0.00 36 1010.5
20260906030012 81 324 0.0 0.0 0.00 0.00 0.00 32 1010.4
20260906024511 82 308 0.0 0.0 0.00 0.00 0.00 30 1010.3
20260906023011 83 304 0.0 0.0 0.00 0.00 0.00 33 1010.2
20260906021510 84 320 0.0 0.0 0.00 0.00 0.00 33 1010.1
20260906020016 85 329 0.0 0.0 0.00 0.00 0.00 31 1010.1
20260906014513 87 284 0.0 0.0 0.00 0.00 0.00 32 1010.1
20260906013012 89 279 0.0 0.0 0.00 0.00 0.00 33 1010.1
20260906011508 90 274 0.0 0.0 0.00 0.00 0.00 31 1010.1
20260906010007 90 274 0.0 0.0 0.00 0.00 0.00 29 1010.1
20260906004507 90 273 0.0 0.0 0.00 0.00 0.00 29 1010.0
20260906003006 91 265 0.0 0.0 0.00 0.00 0.00 29 1010.1
20260906001505 92 265 0.0 0.0 0.00 0.00 0.00 28 1010.0
20260906000004 92 231 0.0 0.0 0.00 0.00 0.00 29 1009.9
20260905234503 92 284 0.0 0.0 0.00 0.00 0.00 28 1009.9
20260905233100 93 296 0.0 0.0 0.00 0.00 0.00 27 1010.1
20260905231604 92 299 0.0 0.0 0.00 0.00 0.00 27 1010.0
20260905224556 94 296 0.0 0.0 0.00 0.00 0.00 30 1010.1
20260905223056 94 324 0.0 0.0 0.00 0.00 0.00 29 1010.1
20260905221555 94 278 0.0 0.0 0.00 0.00 0.00 31 1010.2
20260905220100 94 277 0.0 0.0 0.00 0.00 0.00 31 1010.4
20260905214549 96 286 0.0 0.0 0.00 0.00 0.00 30 1010.5
20260905213047 97 220 0.0 0.0 0.00 0.00 0.00 29 1010.5
20260905211546 98 261 0.0 0.0 0.00 0.00 0.00 28 1010.6
20260905210056 99 261 0.0 0.0 0.00 0.00 0.00 27 1010.7
20260905204550 100 287 0.0 0.0 0.00 0.00 0.00 25 1010.7
20260905203052 99 173 0.0 0.0 0.00 0.00 0.00 21 1010.8
20260905201535 99 178 0.0 0.0 0.00 0.00 0.00 20 1011.1
20260905200035 99 171 0.0 0.0 0.00 0.00 0.00 15 1011.1
20260905194530 97 188 0.0 0.0 0.00 0.00 0.00 14 1011.3
20260905193025 95 175 0.0 0.0 0.00 0.00 0.00 16 1011.5
20260905191523 95 292 0.0 0.0 0.00 0.00 0.00 16 1011.7
20260905190021 94 217 0.0 0.0 0.00 0.00 0.00 18 1012.0
20260905184520 93 193 0.0 0.0 0.00 0.00 0.00 19 1012.3
20260905183011 91 267 0.0 0.0 0.00 0.00 0.00 20 1012.3
20260905181506 89 213 0.0 0.0 0.00 0.00 0.00 23 1012.4
20260905180002 87 205 0.0 0.0 0.00 0.00 0.00 26 1012.5
20260905174604 86 174 0.0 0.0 0.00 0.00 0.00 26 1012.4
20260905173053 83 188 0.0 0.0 0.00 0.00 0.00 30 1012.4
20260905171605 81 267 0.0 0.0 0.00 0.00 0.00 32 1012.2
20260905170047 78 182 0.0 0.0 0.00 0.00 0.00 42 1012.3
20260905164545 75 202 0.0 0.0 0.00 0.00 0.00 50 1012.3
20260905163044 71 267 0.0 0.0 0.00 0.00 0.00 55 1012.2
20260905161533 66 334 0.0 0.0 0.00 0.00 0.00 67 1012.3
20260905160027 63 5 0.0 0.0 0.00 0.00 0.00 79 1012.4
20260905154524 61 5 0.0 0.0 0.00 0.00 0.00 88 1012.5
20260905153023 60 5 0.0 0.0 0.00 0.00 0.00 91 1012.4
20260905151519 59 5 0.0 0.0 0.00 0.00 0.00 91 1012.4
20260905150014 58 5 0.0 0.0 0.00 0.00 0.00 90 1012.4
20260905144512 58 5 0.0 0.0 0.00 0.00 0.00 89 1012.2
20260905143010 58 5 0.0 0.0 0.00 0.00 0.00 89 1012.1
20260905141510 58 5 0.0 0.0 0.00 0.00 0.00 89 1012.0
20260905140008 58 5 0.0 0.0 0.00 0.00 0.00 89 1011.9
20260905134513 58 5 0.0 0.0 0.00 0.00 0.00 89 1011.7
20260905133008 58 5 0.0 0.0 0.00 0.00 0.00 89 1011.6
20260905131511 58 5 0.0 0.0 0.00 0.00 0.00 89 1011.4
20260905130005 58 5 0.0 0.0 0.00 0.00 0.00 89 1011.3
20260905124505 58 5 0.0 0.0 0.00 0.00 0.00 88 1011.1
20260905123002 59 5 0.0 0.0 0.00 0.00 0.00 88 1011.0
20260905121604 59 5 0.0 0.0 0.00 0.00 0.00 88 1011.1
20260905120058 59 5 0.0 0.0 0.00 0.00 0.00 88 1011.1
20260905114607 59 5 0.0 0.0 0.00 0.00 0.00 88 1011.2
20260905113056 60 5 0.0 0.0 0.00 0.00 0.00 88 1011.2
20260905111624 60 5 0.0 0.0 0.00 0.00 0.00 88 1011.3
20260905104610 60 5 0.0 0.0 0.00 0.00 0.00 88 1011.4
20260905103052 60 5 0.0 0.0 0.00 0.00 0.00 87 1011.4
20260905101552 61 5 0.0 0.0 0.00 0.00 0.00 87 1011.5
20260905100049 61 5 0.0 0.0 0.00 0.00 0.00 87 1011.4
20260905094650 61 5 0.0 0.0 0.00 0.00 0.00 86 1011.4
20260905093049 61 5 0.0 0.0 0.00 0.00 0.00 86 1011.5
20260905091548 61 5 0.0 0.0 0.00 0.00 0.00 85 1011.4
20260905090043 61 5 0.0 0.0 0.00 0.00 0.00 84 1011.6
20260905084555 61 5 0.0 0.0 0.00 0.00 0.00 83 1011.8
20260905083040 61 5 0.0 0.0 0.00 0.00 0.00 82 1011.7
20260905081540 62 5 0.0 0.0 0.00 0.00 0.00 81 1012.0
20260905080035 62 5 0.0 0.0 0.00 0.00 0.00 81 1012.2
20260905074533 62 5 0.0 0.0 0.00 0.00 0.00 81 1012.3
20260905073031 62 5 0.0 0.0 0.00 0.00 0.00 80 1012.5
20260905071529 63 5 0.0 0.0 0.00 0.00 0.00 78 1012.6
20260905070026 63 5 0.0 0.0 0.00 0.00 0.00 77 1012.5
20260905064524 64 355 0.0 0.0 0.00 0.00 0.00 77 1012.4
20260905063024 64 355 0.0 0.0 0.00 0.00 0.00 77 1012.4
20260905061530 64 355 0.0 0.0 0.00 0.00 0.00 77 1012.3
20260905060046 65 355 0.0 0.0 0.00 0.00 0.00 75 1012.2
20260905054524 65 355 0.0 0.0 0.00 0.00 0.00 75 1012.2
20260905053022 66 355 0.0 0.0 0.00 0.00 0.00 75 1012.2